This is the latest recevied weather packets stored in our database for station/object EA1ZE. If no packets are shown the sender has not sent any weather packets the latest 10 day(s).
| Time | Temp. | Humidity | Pressure | Rain* | Wind** | Luminosity | Snow |
|---|---|---|---|---|---|---|---|
| 1787432453 | 24.44° C | 45% | 1011.7 hPa | 0 mm | - | - | - |
| 1787431549 | 24.44° C | 43% | 1011.4 hPa | 0 mm | - | - | - |
| 1787430651 | 25° C | 41% | 1011.3 hPa | 0 mm | - | - | - |
| 1787429749 | 26.11° C | 40% | 1011.3 hPa | 0 mm | - | - | - |
| 1787428848 | 26.11° C | 40% | 1011.1 hPa | 0 mm | - | - | - |
| 1787427954 | 26.67° C | 38% | 1010.9 hPa | 0 mm | - | - | - |
| 1787427051 | 27.78° C | 36% | 1010.8 hPa | 0 mm | - | - | - |
| 1787426164 | 27.78° C | 35% | 1010.7 hPa | 0 mm | - | - | - |
| 1787425247 | 28.33° C | 35% | 1010.6 hPa | 0 mm | - | - | - |
| 1787424346 | 28.89° C | 34% | 1010.5 hPa | 0 mm | - | - | - |
| 1787423446 | 29.44° C | 33% | 1010.4 hPa | 0 mm | - | - | - |
| 1787422561 | 30° C | 31% | 1010.4 hPa | 0 mm | - | - | - |
| 1787421646 | 30° C | 31% | 1010.4 hPa | 0 mm | - | - | - |
| 1787420743 | 30° C | 31% | 1010.5 hPa | 0 mm | - | - | - |
| 1787419843 | 30.56° C | 31% | 1010.4 hPa | 0 mm | - | - | - |
| 1787418941 | 30° C | 32% | 1010.5 hPa | 0 mm | - | - | - |
| 1787418040 | 29.44° C | 32% | 1010.5 hPa | 0 mm | - | - | - |
| 1787417143 | 28.89° C | 33% | 1010.6 hPa | 0 mm | - | - | - |
| 1787416238 | 28.89° C | 34% | 1010.6 hPa | 0 mm | - | - | - |
| 1787415340 | 29.44° C | 34% | 1010.6 hPa | 0 mm | - | - | - |
| 1787414439 | 29.44° C | 34% | 1010.7 hPa | 0 mm | - | - | - |
| 1787413540 | 29.44° C | 34% | 1010.6 hPa | 0 mm | - | - | - |
| 1787412635 | 28.89° C | 36% | 1010.7 hPa | 0 mm | - | - | - |
| 1787411741 | 28.89° C | 37% | 1010.8 hPa | 0 mm | - | - | - |
| 1787410836 | 28.89° C | 37% | 1010.8 hPa | 0 mm | - | - | - |
* Rain latest hour (hover to see other rain measurements)
** Current wind speed in m/s (hover to see current wind gust speed)